(198366) = 2004 VZ16

Discovered at Catalina on 2004-11-04 by CSS.

Orbit

Orbit type: Main Belt

Note: WebGL enabled browser required.

epoch2023-02-25.0
epoch JD2460000.5
perihelion date2020-08-14.42538
perihelion JD2459075.92538
argument of perihelion (°)89.40028
ascending node (°)231.56613
inclination (°)13.50755
eccentricity0.1371742
perihelion distance (AU)2.2215504
Tisserand w.r.t. Jupiter3.4
ΔV w.r.t. Earth (km/sec)10.2
semimajor axis (AU)2.5747381
mean anomaly (°)220.56989
mean daily motion (°/day)0.23856370
aphelion distance (AU)2.928
period (years)4.13
P-vector [x]0.75511054
P-vector [y]-0.65493868
P-vector [z]-0.02938358
Q-vector [x]0.62954917
Q-vector [y]0.71187144
Q-vector [z]0.31129873
absolute magnitude16.22
phase slope0.15
uncertainty0
referenceMPO 745323
observations used465
oppositions13
arc length (days)8190
first opposition used2000
last opposition used2023
residual rms (arc-secs)0.79
perturbers coarse indicatorM-v
perturbers precise indicator003Ek
first observation date used2000-11-21.0
last observation date used2023-04-25.0
computer nameMPCLINUX
Minimum Orbit Intersection Distances (in AU)
for orbit epoch: 2460000.5, reference: E2023-HJ2
Mercury1.82694
Venus1.53743
Earth1.25783
Mars0.91775
Jupiter2.40727
Saturn6.3013
Uranus15.6379
Neptune27.3154

Observations

477 total observations over interval: 2000 11 21.32029 – 2023 04 25.294538
These data are available for download (format description).

Date (UT) J2000 RA J2000 Dec Magn Location Ref
2000 11 21.32029 03 32 21.35 +17 12 23.9 19.2   704 – Lincoln Laboratory ETS, New Mexico MPS 120624
2000 11 21.33491 03 32 20.56 +17 12 14.1 19.2   704 – Lincoln Laboratory ETS, New Mexico MPS 120624
2000 11 21.34951 03 32 19.66 +17 12 05.9 19.2   704 – Lincoln Laboratory ETS, New Mexico MPS 120624
2003 05 05.40549 16 31 41.84 -18 55 31.4 19.6   704 – Lincoln Laboratory ETS, New Mexico MPS 120624
2003 05 05.41810 16 31 41.22 -18 55 26.4 19.7   704 – Lincoln Laboratory ETS, New Mexico MPS 120624
2003 05 05.43047 16 31 40.76 -18 55 20.3 20.3   704 – Lincoln Laboratory ETS, New Mexico MPS 120624
2003 05 05.44300 16 31 40.25 -18 55 14.8 20.3   704 – Lincoln Laboratory ETS, New Mexico MPS 120624
2003 05 30.27368 16 10 54.14 -15 21 59.3 18.0   704 – Lincoln Laboratory ETS, New Mexico MPS 120624
2003 05 30.28422 16 10 53.56 -15 21 53.6 18.9   704 – Lincoln Laboratory ETS, New Mexico MPS 120624
2003 05 30.29469 16 10 52.90 -15 21 47.4 18.9   704 – Lincoln Laboratory ETS, New Mexico MPS 120624
2004 10 09.45129 02 48 46.87 +23 02 09.0 19.2 R 699 – Lowell Observatory-LONEOS MPS 120624
2004 10 09.46107 02 48 46.35 +23 02 05.6   699 – Lowell Observatory-LONEOS MPS 120624
2004 10 09.47083 02 48 46.15 +23 02 01.2   699 – Lowell Observatory-LONEOS MPS 120624
2004 10 09.48063 02 48 45.61 +23 01 56.9   699 – Lowell Observatory-LONEOS MPS 120624
2004 10 15.30140 02 44 42.04 +22 16 48.2 19.8   704 – Lincoln Laboratory ETS, New Mexico MPS 120624
2004 10 15.31247 02 44 41.51 +22 16 43.0 20.0   704 – Lincoln Laboratory ETS, New Mexico MPS 120624
2004 10 15.33462 02 44 40.39 +22 16 31.6 20.3   704 – Lincoln Laboratory ETS, New Mexico MPS 120624
2004 10 21.26883 02 39 54.31 +21 23 59.4 20.0   704 – Lincoln Laboratory ETS, New Mexico MPS 120624
2004 10 21.28065 02 39 53.61 +21 23 53.2 20.2   704 – Lincoln Laboratory ETS, New Mexico MPS 120624
2004 10 21.29241 02 39 52.96 +21 23 45.6 20.1   704 – Lincoln Laboratory ETS, New Mexico MPS 120624
2004 10 21.30415 02 39 52.33 +21 23 39.3 19.9   704 – Lincoln Laboratory ETS, New Mexico MPS 120624
2004 10 21.31594 02 39 51.72 +21 23 32.8 19.9   704 – Lincoln Laboratory ETS, New Mexico MPS 120624
2004 11 04.35344 02 27 29.14 +19 01 04.6 19.0 R 703 – Catalina Sky Survey MPS 119360
2004 11 04.36313 02 27 28.64 +19 01 00.1 19.5 R 703 – Catalina Sky Survey MPS 119360
2004 11 04.37287 02 27 28.18 +19 00 52.8 18.7 R 703 – Catalina Sky Survey MPS 119360
2004 11 04.38267 02 27 27.61 +19 00 47.2 18.9 R 703 – Catalina Sky Survey MPS 119360
2004 11 05.85326 02 26 10.95 +18 45 03.9 18.6 R 599 – Campo Imperatore-CINEOS MPS 119360
2004 11 05.86375 02 26 10.35 +18 44 57.1 18.5 R 599 – Campo Imperatore-CINEOS MPS 119360
2004 11 05.87421 02 26 09.78 +18 44 50.1 18.7 R 599 – Campo Imperatore-CINEOS MPS 119360
2004 11 05.88465 02 26 09.24 +18 44 44.1 19.1 R 599 – Campo Imperatore-CINEOS MPS 119360
2004 11 12.25964 02 20 50.28 +17 36 47.2 17.9 R 703 – Catalina Sky Survey MPS 119360
2004 11 12.26621 02 20 50.01 +17 36 42.3 19.2 R 703 – Catalina Sky Survey MPS 119360
2004 11 12.27272 02 20 49.67 +17 36 37.5 18.9 R 703 – Catalina Sky Survey MPS 119360
2004 11 12.27924 02 20 49.36 +17 36 34.8 19.1 R 703 – Catalina Sky Survey MPS 119360
2004 11 19.25209 02 15 43.93 +16 24 49.4 19.0 R 703 – Catalina Sky Survey MPS 119901
2004 11 19.26038 02 15 43.64 +16 24 44.9 18.7 R 703 – Catalina Sky Survey MPS 119901
2004 11 19.26865 02 15 43.34 +16 24 40.7 19.0 R 703 – Catalina Sky Survey MPS 119901
2004 11 19.27694 02 15 42.95 +16 24 34.6 19.5 R 703 – Catalina Sky Survey MPS 119901
2004 12 18.17045 02 07 10.68 +12 48 28.5 19.6 R G96 – Mt. Lemmon Survey MPS 122727
2004 12 18.17829 02 07 10.76 +12 48 26.5 19.4 R G96 – Mt. Lemmon Survey MPS 122727
2004 12 18.18611 02 07 10.82 +12 48 24.5 19.7 R G96 – Mt. Lemmon Survey MPS 122727
2004 12 18.19396 02 07 10.84 +12 48 22.9 20.2 R G96 – Mt. Lemmon Survey MPS 122727
2007 04 20.33767 15 21 40.14 -21 22 39.9 19.7 V G96 – Mt. Lemmon Survey MPS 208084
2007 04 20.34468 15 21 39.88 -21 22 36.8 20.0 V G96 – Mt. Lemmon Survey MPS 208084
2007 04 20.35156 15 21 39.56 -21 22 33.1 20.8 V G96 – Mt. Lemmon Survey MPS 208084
2007 04 20.35841 15 21 39.24 -21 22 29.7 20.9 V G96 – Mt. Lemmon Survey MPS 208084
2007 05 07.25102 15 08 09.25 -19 00 39.2 20.4 V 691 – Steward Observatory, Kitt Peak-Spacewatch MPS 208937
2007 05 07.26865 15 08 08.28 -19 00 29.2 20.2 V 691 – Steward Observatory, Kitt Peak-Spacewatch MPS 208937
2007 05 07.28628 15 08 07.31 -19 00 19.7 19.9 V 691 – Steward Observatory, Kitt Peak-Spacewatch MPS 208937
2007 05 11.24771 15 04 36.52 -18 22 59.0 19.8 V 691 – Steward Observatory, Kitt Peak-Spacewatch MPS 208937
2007 05 11.26534 15 04 35.53 -18 22 48.9 19.8 V 691 – Steward Observatory, Kitt Peak-Spacewatch MPS 208937
2007 05 11.28297 15 04 34.49 -18 22 39.1 19.3 V 691 – Steward Observatory, Kitt Peak-Spacewatch MPS 208937
2007 05 13.31756 15 02 46.17 -18 03 10.3 19.1 V G96 – Mt. Lemmon Survey MPS 208937
2007 05 13.32252 15 02 45.88 -18 03 07.5 19.2 V G96 – Mt. Lemmon Survey MPS 208937
2007 05 13.32744 15 02 45.63 -18 03 04.7 19.1 V G96 – Mt. Lemmon Survey MPS 208937
2007 05 13.33245 15 02 45.34 -18 03 01.9 19.0 V G96 – Mt. Lemmon Survey MPS 208937
2007 05 15.08049 15 01 12.82 -17 46 15.4 19.1 R J75 – OAM Observatory, La Sagra MPS 208937
2007 05 15.08906 15 01 12.33 -17 46 09.0 19.9 R J75 – OAM Observatory, La Sagra MPS 208937
2008 10 03.28821 01 24 23.11 +21 55 50.0 20.3   704 – Lincoln Laboratory ETS, New Mexico MPS 259252
2008 10 03.30044 01 24 22.52 +21 55 44.0 19.8   704 – Lincoln Laboratory ETS, New Mexico MPS 259252
2008 10 03.31264 01 24 21.99 +21 55 37.7 20.2   704 – Lincoln Laboratory ETS, New Mexico MPS 259252
2008 10 03.32482 01 24 21.31 +21 55 31.7 20.1   704 – Lincoln Laboratory ETS, New Mexico MPS 259252
2008 10 26.18171 01 06 22.28 +17 45 59.2 19.7 V G96 – Mt. Lemmon Survey MPS 261520
2008 10 26.18716 01 06 22.03 +17 45 55.4 19.7 V G96 – Mt. Lemmon Survey MPS 261520
2008 10 26.19256 01 06 21.81 +17 45 51.5 19.6 V G96 – Mt. Lemmon Survey MPS 261520
2008 10 26.19802 01 06 21.56 +17 45 47.5 19.5 V G96 – Mt. Lemmon Survey MPS 261520
2008 11 01.20488 01 02 30.84 +16 34 16.2 19.8 V G96 – Mt. Lemmon Survey MPS 263200
2008 11 01.21596 01 02 30.40 +16 34 08.6 19.7 V G96 – Mt. Lemmon Survey MPS 263200
2008 11 01.22706 01 02 30.01 +16 34 00.6 19.5 V G96 – Mt. Lemmon Survey MPS 263200
2008 11 01.23814 01 02 29.58 +16 33 52.8 19.3 V G96 – Mt. Lemmon Survey MPS 263200
2011 04 24.30201 14 02 43.29 -19 27 06.9 19.9 V G96 – Mt. Lemmon Survey MPS 380993
2011 04 24.31053 14 02 42.86 -19 27 01.7 19.2 V G96 – Mt. Lemmon Survey MPS 380993
2011 04 24.31872 14 02 42.43 -19 26 57.2 19.0 V G96 – Mt. Lemmon Survey MPS 380993
2011 04 24.32682 14 02 41.96 -19 26 52.8 19.2 V G96 – Mt. Lemmon Survey MPS 380993
2012 09 12.83765 00 01 08.51 +20 13 53.0 19.9 V A50 – Andrushivka Astronomical Observatory MPS 431746
2012 09 12.85427 00 01 07.72 +20 13 45.2 19.6 V A50 – Andrushivka Astronomical Observatory MPS 431746
2012 09 12.87085 00 01 06.96 +20 13 38.1 19.6 V A50 – Andrushivka Astronomical Observatory MPS 431746
2012 09 16.40216 23 58 28.12 +19 47 13.1 19.4 V 703 – Catalina Sky Survey MPS 433055
2012 09 16.41014 23 58 27.73 +19 47 10.4 18.9 V 703 – Catalina Sky Survey MPS 433055
2012 09 16.41808 23 58 27.37 +19 47 05.2 19.4 V 703 – Catalina Sky Survey MPS 433055
2012 09 16.42605 23 58 27.04 +19 47 02.1 19.2 V 703 – Catalina Sky Survey MPS 433055
2012 10 06.14821 23 44 01.71 +16 23 00.7 19.0 V 703 – Catalina Sky Survey MPS 434773
2012 10 06.15491 23 44 01.39 +16 22 56.7 19.2 V 703 – Catalina Sky Survey MPS 434773
2012 10 06.16164 23 44 01.14 +16 22 52.2 18.9 V 703 – Catalina Sky Survey MPS 434773
2012 10 06.16833 23 44 00.88 +16 22 46.7 19.0 V 703 – Catalina Sky Survey MPS 434773
2012 10 13.15206 23 40 05.95 +14 58 10.2 19.3 V 703 – Catalina Sky Survey MPS 437402
2012 10 13.16110 23 40 05.55 +14 58 03.5 19.0 V 703 – Catalina Sky Survey MPS 437402
2012 10 13.17020 23 40 05.30 +14 57 57.4 19.0 V 703 – Catalina Sky Survey MPS 437402
2012 10 13.17925 23 40 05.08 +14 57 50.9 19.3 V 703 – Catalina Sky Survey MPS 437402
2012 10 13.26530 23 40 02.33 +14 56 46.5 19.8   704 – Lincoln Laboratory ETS, New Mexico MPS 449452
2012 10 13.27959 23 40 01.85 +14 56 37.6 19.8   704 – Lincoln Laboratory ETS, New Mexico MPS 449452
2012 10 13.29436 23 40 01.47 +14 56 26.4 19.7   704 – Lincoln Laboratory ETS, New Mexico MPS 449452
2012 10 13.30846 23 40 01.12 +14 56 15.0 20.0   704 – Lincoln Laboratory ETS, New Mexico MPS 449453
